GFSMA_500_spd_159.txt.gz
Wind_Speed
10 10 11 12 12 12 11 11 11 13 12 13 12 13 10 15 11 18 19 18 18 19 23 24 24 24 23 22 21 20 21 21 19 17 15 15 15 12 9 7 4 4 3
11 11 12 13 14 14 14 13 12 12 12 10 9 9 8 8 11 7 6 10 15 24 25 25 28 27 24 25 23 22 22 23 24 21 20 18 17 16 10 8 7 5 5
10 10 11 12 14 14 14 14 13 14 13 12 10 9 9 9 9 8 8 12 15 19 25 27 26 29 30 30 27 26 25 24 24 24 22 21 18 17 15 11 10 8 7
9 9 11 14 16 16 14 13 13 12 11 10 11 11 12 12 13 12 11 12 16 19 18 22 22 26 30 33 34 29 32 26 26 25 24 23 22 20 18 16 15 13 11
7 9 11 12 13 13 12 13 14 15 14 13 13 14 14 14 15 15 15 16 17 18 16 15 22 23 29 29 29 31 31 26 27 25 24 24 24 22 20 19 17 15 13
10 11 10 11 12 13 15 15 16 16 14 15 16 18 19 19 19 18 18 18 18 18 18 18 17 20 26 30 32 32 30 28 28 28 28 28 29 24 22 20 18 17 16
10 12 15 15 15 14 14 16 19 20 20 20 20 22 24 23 22 23 24 23 21 19 20 21 20 20 18 16 20 26 34 30 29 28 28 24 23 24 24 23 21 19 18
11 13 16 15 16 17 18 18 19 20 23 24 23 20 19 24 25 26 25 24 25 24 22 22 23 22 22 22 20 21 28 37 35 31 30 29 27 26 25 24 23 22 20
13 14 14 15 15 16 19 21 22 22 24 24 27 29 27 23 20 25 26 28 28 27 26 27 27 25 25 24 23 22 23 29 34 37 35 31 31 31 29 26 25 23 21
16 16 15 15 18 20 20 21 25 24 25 28 30 32 33 33 28 23 26 29 29 32 33 29 30 31 29 29 29 29 27 27 28 31 33 38 38 34 32 30 28 26 24
21 19 18 18 20 25 26 26 27 28 28 30 33 33 33 36 38 39 34 32 33 33 34 37 35 34 36 35 33 33 34 33 32 32 31 32 37 38 38 35 32 30 27
26 25 24 22 23 26 28 30 31 33 35 36 39 41 40 38 38 40 43 35 34 32 36 37 40 41 41 40 40 39 38 37 36 33 33 32 34 35 41 39 36 32 30
26 29 30 26 23 30 33 36 38 40 42 42 42 43 44 42 42 43 44 43 33 30 33 34 40 43 44 44 42 43 44 43 42 39 36 34 31 36 39 43 40 36 35
32 32 32 23 28 34 38 39 40 43 44 44 43 46 46 45 48 46 48 41 37 30 31 32 36 41 45 48 48 47 44 47 48 46 42 39 35 33 35 40 43 40 38
39 12 18 24 30 36 40 41 43 44 45 46 46 47 47 53 46 44 39 42 40 42 37 30 36 40 42 48 51 51 47 45 48 50 48 44 40 37 35 36 39 41 43
35 33 29 28 35 39 42 43 45 45 46 49 52 49 49 49 49 40 38 40 40 39 38 41 35 40 43 44 50 52 50 47 45 48 49 48 44 41 40 38 37 37 40
35 34 33 33 39 43 44 46 46 49 49 53 50 44 44 49 48 43 42 42 44 49 46 47 52 58 52 53 54 52 51 48 46 46 48 48 47 44 42 41 38 37 36
35 35 36 37 41 44 46 43 50 50 51 46 41 43 45 49 52 52 52 53 49 52 55 54 51 54 56 58 56 53 53 55 51 51 50 49 49 47 44 43 41 40 38
37 39 41 41 43 46 49 44 45 49 41 38 49 46 50 53 56 54 53 52 52 55 59 56 52 51 41 45 49 50 50 54 56 57 54 50 49 49 47 43 43 41 40
42 43 44 44 49 49 49 42 45 45 39 49 51 54 53 58 54 56 57 60 59 54 53 53 48 25 26 34 35 41 46 50 55 59 57 51 48 48 49 47 45 44 42
46 46 46 47 50 49 45 50 46 44 48 50 55 55 56 56 54 57 60 59 54 49 51 44 28 29 28 24 25 32 39 42 46 56 58 56 52 51 50 50 48 44 43
47 47 47 48 48 46 46 49 47 48 50 52 58 53 53 54 51 51 55 54 58 54 40 30 26 25 31 26 24 27 31 31 34 43 49 53 54 53 54 52 51 48 47
50 49 48 47 46 49 48 49 49 49 51 55 54 51 55 51 50 46 51 53 52 44 36 32 30 31 23 29 27 23 25 31 32 35 38 43 52 57 56 55 53 50 49
52 49 47 47 47 47 48 49 49 50 52 51 50 51 44 46 42 46 52 49 47 34 25 28 27 32 30 19 21 19 18 23 21 24 27 33 43 53 54 53 54 49 47
47 47 47 45 46 47 48 49 49 50 47 48 48 41 37 39 43 47 49 47 34 24 28 27 31 24 17 16 16 12 15 13 15 17 22 28 40 47 49 47 49 47 47
44 44 45 43 46 47 47 49 50 47 47 45 36 38 34 40 42 44 48 42 25 25 25 22 23 15 16 17 13 14 5 5 7 10 15 24 35 38 39 42 43 45 44

GFSMA_500_spd_162.txt.gz
Wind_Speed
10 11 10 11 11 12 12 11 11 11 11 11 10 8 10 11 13 12 10 12 16 19 21 24 26 25 26 24 24 26 25 24 22 19 18 17 15 13 12 9 6 4 3
10 11 13 15 15 15 14 13 13 13 12 11 11 11 9 9 11 9 8 8 11 12 16 23 27 28 30 29 27 28 29 27 26 24 22 20 19 17 13 12 9 7 6
8 9 10 11 13 14 13 13 14 15 15 14 12 11 11 11 10 11 12 14 16 18 19 18 21 28 27 31 31 30 30 31 28 26 25 23 21 19 17 14 11 10 9
9 10 10 12 13 12 11 10 10 11 13 13 13 14 15 15 14 13 13 14 17 19 20 19 17 18 25 26 32 35 36 37 33 31 28 26 23 22 19 17 15 14 13
7 9 11 12 12 11 10 11 13 13 12 12 14 16 17 18 20 19 18 18 18 20 22 21 19 17 17 26 30 33 36 36 34 33 31 27 26 24 22 20 19 17 14
7 8 10 11 11 12 13 15 15 15 17 18 18 20 22 23 22 22 22 23 21 21 21 23 23 21 20 22 26 30 34 37 35 30 37 29 27 27 24 23 22 19 16
7 9 12 15 14 12 11 13 16 18 20 21 21 22 22 25 26 24 23 24 25 24 23 23 24 25 25 24 24 21 25 27 35 34 34 33 30 29 26 30 26 23 20
11 13 15 15 15 13 13 14 17 18 19 20 23 24 23 25 27 31 33 30 26 26 27 26 27 27 29 29 28 28 28 27 27 37 36 34 31 29 26 29 25 26 23
13 15 16 16 15 14 14 16 19 22 22 24 26 28 28 26 24 27 33 36 37 35 32 31 31 31 32 33 32 31 31 29 27 30 38 37 35 33 30 25 27 27 27
17 18 19 19 19 20 19 19 21 23 25 27 29 30 31 31 27 24 31 33 36 37 41 40 37 35 35 36 37 36 36 35 33 29 32 41 43 38 34 33 31 30 29
20 23 25 26 26 25 22 22 27 28 30 32 34 35 35 36 37 33 26 28 31 35 40 42 44 43 38 39 40 41 40 40 38 35 33 32 37 41 43 40 37 35 33
22 38 33 29 30 30 20 24 30 34 37 40 41 40 40 40 39 41 42 40 36 35 37 43 46 45 44 42 41 42 44 44 43 41 39 37 35 35 36 40 44 42 38
26 34 25 17 11 15 24 27 31 36 39 42 41 42 43 42 42 41 39 38 39 33 27 32 40 45 46 48 45 41 44 47 48 46 45 43 41 39 39 36 41 45 43
43 15 27 15 18 19 25 29 32 34 41 42 42 47 46 42 40 37 34 37 38 37 32 29 29 39 47 48 47 47 42 45 48 49 49 50 47 43 41 40 37 42 45
22 12 28 26 23 25 30 32 35 35 41 42 46 46 42 36 37 38 38 40 42 45 46 38 36 35 37 38 42 44 44 44 45 50 51 52 52 49 45 42 39 39 44
25 29 25 26 25 27 33 37 36 38 38 40 41 39 40 39 40 45 48 49 49 49 51 48 51 46 42 42 42 44 45 44 47 44 49 52 53 53 51 46 43 40 40
26 29 30 29 31 34 34 37 37 38 38 38 39 41 41 43 50 49 51 52 54 55 53 46 51 52 47 47 47 49 54 57 53 50 46 45 51 54 53 50 46 44 40
29 30 34 35 36 36 38 40 39 40 39 44 39 41 43 50 51 54 55 56 55 54 53 51 49 47 44 48 50 53 53 54 55 54 54 47 46 51 52 51 48 46 44
30 31 35 37 36 38 40 40 40 40 42 44 44 47 49 51 54 57 58 58 58 55 55 48 45 43 41 42 44 44 42 44 54 56 55 54 48 47 49 50 48 46 44
32 38 40 39 38 40 41 40 41 44 43 44 46 49 52 54 58 57 57 57 56 54 52 50 45 35 32 29 29 29 28 34 35 43 53 58 55 49 48 49 48 47 45
35 40 42 40 40 43 43 43 45 45 44 46 47 51 54 56 55 57 54 53 54 53 48 45 34 30 23 30 27 31 27 25 29 34 43 56 59 54 50 51 50 48 47
39 43 45 43 43 44 45 47 47 47 46 47 49 53 54 51 52 47 45 49 54 51 44 38 30 29 27 25 32 27 29 27 26 28 32 40 53 57 54 53 52 53 51
42 43 44 44 45 44 46 49 48 48 48 48 50 51 49 49 44 45 44 44 48 52 45 29 32 34 29 27 24 24 22 20 20 23 28 33 42 49 55 52 49 49 50
46 43 44 45 44 45 47 48 49 48 48 50 51 47 47 42 40 41 40 44 49 46 41 27 30 25 23 17 16 17 14 12 14 15 16 25 32 40 49 54 52 52 53
52 46 43 43 44 46 47 47 48 48 48 48 47 48 38 34 39 39 40 45 45 42 37 32 24 21 21 14 13 14 8 16 13 10 12 18 27 33 45 50 53 53 52
45 44 42 41 45 47 47 46 45 46 46 44 43 35 32 34 33 36 40 39 37 38 29 26 20 14 13 11 14 7 5 3 2 5 7 15 20 25 34 45 49 49 47

GFSMA_500_spd_165.txt.gz
Wind_Speed
10 10 10 10 10 9 9 9 11 12 12 14 13 13 12 12 12 13 11 10 10 12 16 20 23 26 27 28 28 27 27 29 27 25 23 20 18 16 14 12 10 9 8
8 9 11 12 14 14 14 13 13 13 13 11 10 11 11 12 13 14 15 14 15 16 16 16 19 21 25 31 30 30 30 29 33 30 27 24 22 19 17 15 12 10 9
7 9 10 13 15 14 12 11 12 13 13 13 13 12 12 12 13 14 16 17 17 18 20 19 21 24 23 25 31 30 31 32 33 35 33 28 25 23 20 18 15 13 12
6 8 10 13 13 11 9 8 9 10 11 13 14 15 17 18 18 18 18 19 20 22 21 22 22 22 22 23 24 28 30 33 35 38 37 32 30 26 23 21 18 16 15
9 11 11 12 14 12 10 10 10 13 15 16 18 19 20 22 23 24 24 23 22 23 25 25 23 25 21 22 20 24 28 32 36 39 37 37 37 33 27 25 22 20 19
13 13 14 16 16 15 15 15 14 15 16 17 19 20 22 24 26 26 26 27 27 26 27 27 27 28 26 25 23 26 28 29 33 37 39 33 30 37 31 28 27 23 22
12 14 16 17 17 17 18 19 18 18 19 22 24 27 31 29 29 32 32 32 30 31 29 29 29 30 30 29 30 28 29 31 28 29 35 34 35 36 34 28 28 28 26
13 15 17 19 18 18 18 18 21 22 22 20 23 26 28 33 31 32 36 39 39 37 37 35 33 33 34 35 34 34 33 34 32 30 30 31 32 37 39 33 31 28 30
19 20 21 22 24 23 22 24 25 24 25 26 25 27 29 31 31 35 36 35 37 41 42 43 39 36 36 38 39 38 38 37 36 35 32 32 33 37 39 38 32 29 34
24 26 24 25 28 28 23 24 29 20 25 28 31 32 31 30 33 31 33 38 38 38 37 39 45 47 42 38 39 43 43 42 41 39 36 34 32 36 38 36 32 30 32
21 25 27 30 26 21 21 25 18 26 31 32 35 38 37 37 40 43 38 32 36 42 43 42 44 46 49 49 44 42 44 47 46 44 41 37 36 34 38 40 37 35 35
21 24 16 19 19 12 11 17 24 27 31 34 36 43 40 43 41 42 41 41 34 26 31 34 35 39 40 43 46 45 45 42 48 48 47 44 40 38 36 39 45 44 41
25 17 18 24 19 13 15 19 23 27 30 33 35 39 40 41 41 40 41 41 39 38 35 34 34 36 40 43 47 47 45 45 41 48 52 50 46 43 41 40 38 41 48
21 20 23 25 23 22 24 25 26 26 31 33 36 39 39 40 41 43 45 46 45 48 50 44 38 39 42 46 48 49 45 45 46 40 49 52 52 49 46 43 42 41 39
23 21 22 20 21 24 25 28 29 30 33 35 36 37 40 42 44 43 44 46 50 50 51 51 53 39 40 46 50 54 55 48 45 42 41 46 52 53 51 48 45 43 42
25 25 30 26 25 27 30 33 34 35 34 36 37 39 42 44 44 46 48 51 53 54 54 54 53 53 49 46 50 51 52 54 53 48 45 43 47 53 54 53 51 47 45
25 24 25 25 31 33 35 36 36 38 38 38 40 42 44 46 47 49 51 52 54 54 55 53 52 50 49 52 49 48 46 54 54 53 52 50 44 45 55 55 55 52 48
30 34 33 33 38 36 37 40 39 39 39 41 43 45 47 49 50 52 54 53 53 54 55 53 52 51 49 51 48 47 45 44 54 55 53 55 52 50 46 55 57 55 52
37 38 40 45 27 38 39 41 40 40 41 44 45 47 49 50 52 54 56 54 53 53 53 53 52 46 46 45 41 38 35 36 37 46 53 56 58 62 57 48 55 56 52
35 37 43 44 44 42 43 44 43 42 44 45 45 48 50 53 54 53 54 52 53 53 51 51 48 42 42 37 31 25 26 27 23 31 34 41 52 56 60 52 47 53 52
40 43 48 47 48 45 44 44 43 43 45 46 48 49 52 55 54 52 54 51 49 50 49 50 47 41 31 31 29 25 20 26 26 23 23 33 37 54 58 55 48 50 51
42 46 50 51 52 47 43 45 46 45 46 47 48 50 51 53 54 53 46 47 49 49 50 52 48 37 30 30 21 19 24 23 24 27 22 25 32 41 55 56 51 50 51
49 50 57 54 48 48 44 46 48 45 45 49 50 51 53 53 51 43 41 42 44 48 50 52 44 32 32 19 21 18 21 17 14 19 19 23 27 34 47 56 56 53 52
54 58 50 43 46 47 47 47 48 44 46 48 51 51 50 49 43 40 37 40 44 42 44 50 46 34 29 15 16 12 19 21 17 12 13 15 20 27 34 48 52 54 52
60 59 46 41 49 53 54 50 44 45 46 46 51 48 48 45 41 37 39 39 40 33 40 48 44 33 16 12 17 13 16 13 10 7 7 11 11 21 24 33 42 50 51
71 60 48 42 51 50 47 45 42 45 46 47 46 46 42 41 34 34 38 37 32 33 37 43 23 13 8 12 10 10 6 5 7 7 6 4 9 6 18 22 36 41 46

GFSMA_500_spd_168.txt.gz
Wind_Speed
10 10 12 10 10 12 12 12 12 13 14 14 13 13 13 13 14 15 15 14 14 15 15 14 16 18 19 21 26 29 29 28 29 29 31 24 23 20 16 14 13 12 10
9 8 9 11 11 11 10 9 11 12 13 12 12 12 12 14 16 17 17 16 19 21 20 19 19 20 22 23 23 25 33 32 30 29 31 31 28 25 21 18 15 13 13
10 12 12 13 15 12 9 10 9 10 12 13 13 12 12 13 15 17 19 20 19 21 22 25 25 25 24 23 23 24 24 32 32 32 33 35 31 28 25 22 19 16 15
12 13 13 15 17 15 14 14 15 15 16 17 17 18 18 19 20 19 19 20 21 22 22 24 27 30 31 26 26 24 23 23 30 32 33 39 33 35 31 26 24 20 17
12 14 15 17 18 17 16 16 16 16 17 19 21 21 22 24 26 25 25 24 25 27 28 27 27 28 30 31 30 27 25 24 25 27 31 34 39 34 33 33 28 25 22
14 16 17 19 19 19 19 20 21 21 23 24 24 26 26 23 28 32 31 32 32 31 29 29 29 30 30 31 32 33 30 29 29 29 30 31 36 37 28 39 36 29 26
18 20 21 20 19 20 20 20 18 18 19 21 24 26 32 33 31 30 31 32 34 35 38 38 34 33 34 34 33 36 36 35 34 33 33 32 30 32 37 37 39 35 30
20 24 24 22 19 18 17 19 21 22 22 21 21 26 28 33 37 39 36 36 35 39 41 41 40 39 37 35 34 36 38 40 40 39 36 35 34 31 32 33 36 37 32
19 19 24 26 26 30 23 26 24 25 23 20 27 27 27 30 32 34 36 40 39 42 43 42 43 44 43 41 39 38 39 41 44 43 43 41 36 34 32 32 35 42 38
20 17 14 19 20 18 11 7 16 22 21 24 28 31 33 34 37 35 34 36 35 36 37 39 40 40 40 40 40 42 39 39 41 45 46 46 43 38 36 34 32 39 43
14 5 14 17 17 14 18 13 14 20 23 27 29 32 33 36 40 39 41 42 40 32 33 36 37 36 38 40 40 37 36 35 34 38 45 49 48 44 40 38 35 34 38
14 14 17 14 19 19 18 19 20 24 29 33 35 36 38 39 40 41 42 43 44 44 35 36 40 42 44 46 46 46 45 42 39 37 37 45 50 49 46 42 39 35 33
15 15 14 19 17 18 20 21 24 28 29 32 35 37 40 41 40 40 41 43 43 44 45 43 46 46 45 46 47 47 48 49 48 44 40 39 45 50 49 46 41 38 35
20 17 24 22 28 25 27 30 32 33 33 35 36 38 39 39 42 44 44 46 45 46 47 49 50 48 46 45 47 49 53 52 47 49 49 44 41 45 50 49 47 41 39
19 23 25 29 26 24 30 31 37 37 37 37 36 37 38 40 43 47 49 49 49 47 49 51 50 48 45 44 45 48 53 57 51 47 48 52 47 42 50 51 49 48 43
22 25 23 29 32 33 36 30 38 38 37 39 40 40 42 43 46 49 50 52 53 53 52 51 49 50 49 47 44 46 51 55 53 51 50 51 53 47 47 53 51 50 48
24 26 27 28 32 37 41 42 43 43 44 44 44 44 47 47 48 49 52 55 55 56 54 51 50 50 49 49 46 45 45 46 47 48 44 46 53 53 47 51 54 51 51
32 31 32 33 37 38 41 46 48 47 46 43 44 47 48 49 50 51 55 56 56 57 56 52 49 48 48 46 46 49 46 41 38 42 45 42 47 54 53 48 53 53 51
32 34 35 39 41 45 50 44 50 46 46 45 47 49 49 52 52 53 56 56 55 55 52 51 49 47 46 49 48 47 37 30 24 25 33 38 41 51 53 52 48 51 51
34 36 39 42 47 51 57 59 46 41 45 46 48 50 51 52 53 55 56 56 52 50 48 49 50 50 49 47 46 39 30 31 24 22 21 27 34 44 54 53 55 51 48
39 42 45 46 53 64 59 49 46 45 48 49 49 50 51 52 53 55 55 53 51 47 51 50 50 48 47 40 34 31 26 19 24 23 21 26 29 34 48 56 55 58 51
42 47 50 52 54 59 66 46 46 50 50 49 51 51 50 50 53 54 52 51 50 48 50 51 50 50 39 35 27 19 17 15 17 17 18 27 25 27 34 45 50 60 59
47 51 54 59 60 66 68 71 45 53 52 48 49 50 46 51 52 52 48 47 45 47 49 50 52 49 37 30 17 19 12 19 17 13 13 17 20 26 26 32 39 48 54
52 55 58 60 64 67 70 49 40 45 44 45 44 49 46 48 49 48 46 44 45 44 43 47 51 43 26 19 20 18 16 15 20 14 11 10 13 16 20 25 29 42 47
55 57 62 58 66 68 73 46 39 40 43 43 45 47 44 45 45 44 41 41 41 40 38 43 45 41 26 19 17 19 18 13 11 17 3 6 6 8 15 20 26 37 44
63 48 58 64 69 74 78 40 34 32 39 44 47 46 45 42 42 40 37 39 39 32 33 38 40 43 21 12 10 16 13 11 12 13 8 4 4 6 9 18 22 29 42

GFSMA_500_spd_171.txt.gz
Wind_Speed
12 13 14 14 12 11 12 14 15 16 16 16 14 12 11 11 11 13 13 15 15 16 15 13 16 17 18 20 20 22 22 23 27 29 29 31 26 23 20 19 17 14 10
13 12 13 14 14 12 13 14 16 16 14 12 12 13 13 14 15 16 17 18 18 20 21 21 20 20 21 23 23 22 23 25 25 26 32 31 32 30 27 23 21 18 15
13 13 14 15 17 17 16 17 14 13 14 16 16 16 16 16 16 18 18 19 20 21 22 23 24 27 26 26 25 26 25 25 25 22 26 32 34 34 32 28 24 22 19
14 14 15 18 18 17 15 12 12 12 13 13 13 14 15 18 19 20 21 22 23 23 22 23 25 26 29 30 29 28 28 28 27 25 24 27 38 40 33 32 29 25 22
15 15 14 13 11 11 11 12 12 12 14 16 18 20 20 23 26 29 29 31 31 31 33 31 29 30 30 31 30 31 31 30 30 29 27 26 27 28 29 27 34 33 27
15 14 16 16 15 14 15 13 14 15 16 18 21 26 26 27 25 26 30 30 31 32 33 34 36 37 35 33 33 32 33 34 34 33 31 29 29 30 30 31 26 33 31
14 17 19 20 18 15 18 18 18 18 21 22 21 23 31 33 34 32 34 37 35 33 38 37 37 38 37 39 35 35 33 35 37 38 36 34 33 33 33 33 30 24 40
15 13 17 22 21 20 19 18 15 18 20 17 14 17 25 30 34 39 38 40 40 41 44 42 41 38 37 32 40 39 37 35 36 39 39 39 37 36 35 35 33 28 26
10 7 12 17 17 13 14 14 16 17 19 23 24 24 27 29 31 32 36 41 43 44 43 42 43 38 36 36 30 34 33 34 36 39 43 41 42 41 40 37 35 33 33
11 8 16 17 19 14 12 11 13 16 20 23 27 30 32 33 34 34 38 41 40 40 39 40 43 44 44 43 40 37 40 38 35 31 35 41 43 42 43 41 39 35 31
12 11 15 14 17 20 20 19 20 26 27 30 31 33 36 37 37 38 37 40 42 43 44 44 45 45 45 46 48 46 38 39 41 42 36 35 39 41 43 43 41 40 37
12 11 12 13 15 20 20 23 26 29 30 32 36 38 40 39 38 38 40 42 43 43 45 46 47 48 47 47 48 50 47 42 40 43 44 42 40 40 42 43 42 42 40
12 17 19 21 19 20 20 23 29 27 31 34 35 37 40 41 39 40 44 46 45 45 44 46 49 49 48 48 50 50 49 46 43 42 44 47 45 43 40 41 41 40 42
15 17 17 19 16 20 23 27 32 26 30 35 40 39 40 41 41 44 46 47 46 45 46 49 50 52 51 50 48 50 51 50 48 44 45 46 46 45 44 40 40 41 42
20 20 23 25 26 28 26 32 36 41 46 34 41 41 42 42 42 46 49 49 48 49 47 50 51 52 51 47 47 48 50 52 51 49 48 46 45 46 46 44 39 41 41
24 23 26 28 28 28 31 37 50 54 51 55 34 37 41 43 47 50 50 51 51 51 52 52 51 50 47 44 43 44 45 46 50 51 47 44 46 44 46 47 44 41 43
26 27 26 28 32 34 36 43 48 56 57 50 46 46 47 49 50 52 51 52 52 54 54 50 48 45 46 49 49 48 46 45 44 48 46 46 44 43 46 47 47 45 45
24 26 29 34 37 39 41 46 49 49 60 49 51 50 48 50 52 51 53 52 54 54 54 50 47 48 50 50 48 46 45 47 42 42 37 40 42 40 43 44 48 48 46
24 28 31 36 39 42 46 44 58 56 62 64 58 48 52 56 49 50 51 52 53 55 50 49 48 51 51 47 46 40 37 36 32 31 29 26 34 39 42 45 45 49 48
28 31 34 39 43 46 48 53 56 63 67 68 50 44 54 48 46 49 51 52 55 52 48 46 49 51 51 50 40 34 27 28 25 20 19 23 26 25 34 44 45 48 52
30 34 38 42 47 54 57 56 51 58 60 62 42 45 47 44 44 49 49 51 52 49 46 47 52 52 52 36 26 23 22 18 13 11 16 19 22 21 22 33 42 49 52
34 38 42 47 52 53 55 52 55 64 66 62 42 40 39 39 46 46 49 51 51 45 45 49 49 48 52 36 20 18 20 9 17 18 14 13 19 24 23 25 27 41 51
38 42 46 49 51 61 53 59 61 53 57 51 47 37 36 42 44 47 47 47 45 45 46 47 45 48 45 33 15 17 19 18 13 16 9 8 10 15 20 23 24 31 48
41 43 49 52 59 47 52 56 46 55 49 47 44 37 40 45 43 42 42 41 42 43 45 41 43 49 46 29 20 16 18 20 17 16 9 4 7 8 11 16 20 23 37
45 39 50 52 47 58 59 59 49 53 48 45 45 43 42 42 40 39 38 37 40 41 38 39 45 43 48 29 21 16 19 18 17 17 12 8 6 4 12 14 21 24 30
42 47 52 51 56 58 62 61 62 66 44 44 44 41 39 40 39 36 35 34 36 34 33 35 41 42 40 26 22 17 15 17 15 15 12 10 10 16 12 11 16 20 25

GFSMA_500_spd_174.txt.gz
Wind_Speed
12 13 15 17 17 12 7 5 9 13 12 11 9 9 10 11 14 17 17 18 19 18 17 17 16 19 20 21 21 21 21 21 22 25 26 27 30 31 28 22 19 19 16
12 14 15 14 12 6 2 4 10 10 9 10 10 11 12 13 14 16 19 19 19 20 21 22 23 23 23 23 25 25 26 25 24 24 26 24 29 32 32 31 28 23 21
12 11 10 7 7 4 4 9 8 8 9 11 12 16 17 17 18 18 17 18 20 21 21 22 23 24 26 27 28 29 29 28 28 27 26 28 23 32 34 32 31 29 25
10 8 9 10 10 10 10 11 9 10 12 16 16 19 21 21 22 25 27 30 31 32 28 27 27 31 31 32 31 31 33 33 32 31 30 29 29 31 36 36 26 33 30
10 11 12 13 11 12 13 12 13 13 15 19 21 20 22 23 26 28 29 31 30 32 32 30 28 27 27 31 31 30 31 33 36 35 35 32 31 31 26 25 25 27 34
13 13 16 16 15 16 20 16 15 13 15 20 25 24 24 27 33 31 33 33 35 36 37 38 37 38 33 30 28 29 30 29 33 38 37 36 34 31 30 31 28 24 23
10 12 16 16 16 18 22 22 20 17 15 16 19 23 27 32 34 36 38 38 39 39 39 40 38 38 38 36 33 30 28 31 29 33 38 38 36 35 34 32 31 30 28
6 7 10 14 13 14 17 18 18 19 20 21 24 25 28 33 38 40 40 41 42 42 42 41 41 43 42 41 39 39 37 31 33 28 31 38 39 38 38 37 35 33 30
2 3 9 8 12 12 13 15 15 16 19 20 23 24 24 26 30 34 36 37 38 38 40 42 43 43 43 42 42 42 39 40 37 39 35 35 36 40 40 40 37 37 34
6 3 9 8 12 11 13 14 15 19 24 27 28 31 31 32 33 33 37 40 40 40 40 41 41 41 42 41 42 45 45 42 41 40 42 39 39 36 38 40 41 38 38
7 8 10 11 14 12 14 16 19 22 32 27 36 36 40 42 43 41 39 41 44 44 44 45 44 43 43 42 42 44 45 46 45 44 43 42 41 40 40 37 37 41 40
10 13 15 15 15 16 17 20 22 25 30 31 44 33 46 46 44 45 41 41 41 44 42 44 44 44 45 45 46 47 49 50 49 47 44 44 44 43 42 42 38 37 39
12 14 16 15 18 19 25 26 24 20 32 36 36 35 38 42 42 46 44 43 44 46 42 44 46 47 48 50 52 52 50 50 50 48 47 46 46 46 44 45 42 40 38
13 14 16 18 21 23 26 30 36 31 33 35 40 34 51 51 42 43 47 46 48 47 41 43 47 50 52 51 49 48 47 44 42 44 45 46 47 47 47 45 46 41 41
11 11 13 17 21 26 29 30 31 35 33 36 44 52 52 57 46 41 46 48 51 50 46 47 51 53 50 50 47 45 47 48 47 45 44 44 47 49 48 47 45 44 43
16 12 14 18 25 32 37 37 32 39 47 42 52 52 53 56 52 45 50 53 48 49 50 50 53 51 50 46 47 49 49 51 52 51 46 45 46 45 44 45 46 47 44
19 16 15 20 27 36 42 35 47 56 56 54 55 57 58 57 57 46 52 46 45 51 51 50 52 51 47 48 51 52 51 54 55 53 42 38 36 39 39 42 45 46 45
19 19 21 25 32 38 40 43 45 54 53 57 63 64 70 53 52 45 47 48 49 50 51 50 49 48 48 52 50 52 55 46 39 32 28 31 35 40 40 43 42 44 46
21 21 24 29 35 45 39 45 51 57 50 54 61 54 51 45 50 47 41 45 50 50 50 49 48 48 52 50 53 47 38 33 24 21 19 25 27 29 33 39 41 45 47
28 27 29 32 38 38 43 49 53 56 50 52 48 50 55 49 40 38 41 48 49 48 47 48 48 49 49 50 49 36 19 22 17 15 18 16 16 20 19 25 38 45 46
32 32 35 32 38 41 49 51 51 44 51 53 55 55 47 47 42 42 45 46 46 47 47 47 49 45 46 46 40 23 19 23 18 13 16 14 15 16 14 17 31 40 43
34 37 36 38 38 43 47 51 52 52 57 55 59 60 50 44 40 43 44 45 46 46 46 46 44 42 46 48 33 20 19 16 13 16 19 13 14 11 14 15 21 33 41
36 39 42 43 46 44 45 51 56 49 55 59 63 49 38 41 41 42 44 44 44 43 44 45 40 44 48 45 28 18 22 21 17 16 18 11 10 8 13 18 19 23 37
36 41 47 50 60 44 46 50 57 61 64 61 57 44 38 45 41 41 40 39 39 39 41 41 39 44 47 44 33 20 18 20 19 18 15 9 10 8 5 8 18 24 29
40 46 50 58 45 46 52 55 60 63 62 58 53 34 39 43 42 38 37 36 36 36 38 37 39 40 42 42 33 18 19 21 17 13 11 10 7 5 7 15 17 20 27
42 47 46 47 51 54 55 55 55 46 39 31 38 33 38 41 38 37 34 34 33 33 35 31 35 36 37 43 37 19 17 16 14 14 14 14 13 16 18 8 5 14 16